Regional Weather Roundup
Issued by NWS

Home | Current Version | Previous Version | Graphics & Text | Print | Product List | Glossary On
Versions: 1 2 3 4 5 6 7 8 9 10 11 12 13 14 15 16 17 18 19 20 21 22 23 24 25 26 27 28 29 30 31 32 33 34 35 36 37 38 39 40 41 42 43 44 45 46 47 48 49 50
387
ASUS45 KCYS 141810
RWRWY

WYOMING REGIONAL WEATHER ROUNDUP
NATIONAL WEATHER SERVICE CHEYENNE WY
1100 AM MST SUN FEB 14 2016

NOTE:  "FAIR" INDICATES FEW OR NO CLOUDS BELOW 12,000 FEET
WITH NO SIGNIFICANT WEATHER AND/OR OBSTRUCTIONS TO VISIBILITY.

WYZ001-141900-
YELLOWSTONE NATIONAL PARK

CITY           SKY/WX    TMP DP  RH WIND       PRES   REMARKS
LK YELLOWSTONE   N/A     28  20  71 W8        30.01R WCI  20
6HR MIN TEMP:  23; 6HR MAX TEMP:  28; 6HR PCP:  0.01;

W YELLOWSTONE  NOT AVBL

$$
WYZ002>013-054>058-071-098>099-141900-
NORTHERN WYOMING

CITY           SKY/WX    TMP DP  RH WIND       PRES   REMARKS
JACKSON        CLOUDY    34  27  75 SW17G23   30.05R WCI  23
CODY           FAIR      43  21  42 W16G23    29.88R
GREYBULL       FAIR      42  24  49 SE7       29.88F
6HR MIN TEMP:  27; 6HR MAX TEMP:  42;

WORLAND        FAIR      38  24  57 CALM      29.89S
6HR MIN TEMP:  22; 6HR MAX TEMP:  39;

SHERIDAN       PTSUNNY   39  21  48 SE3       29.81F
6HR MIN TEMP:  30; 6HR MAX TEMP:  39;

BUFFALO        PTSUNNY   42  23  46 E3        29.83S
6HR MIN TEMP:  31; 6HR MAX TEMP:  42;

GILLETTE       CLOUDY    34  27  75 SW8       29.84R WCI  27
6HR MIN TEMP:  26; 6HR MAX TEMP:  34;

HULETT         LGT SNOW  32  30  93 MISG      29.82R
NEWCASTLE      FAIR      32  27  80 CALM      29.85S

$$
WYZ014>020-022>026-101>103-141900-
CENTRAL WYOMING

CITY           SKY/WX    TMP DP  RH WIND       PRES   REMARKS
BIG PINEY      FAIR      30  22  72 CALM      30.08S
6HR MIN TEMP:  19; 6HR MAX TEMP:  30;

PINEDALE         N/A     30  27  86 MISG      30.07S
DUBOIS         MOCLDY    32  21  64 W24G44    29.93F WCI  19
LANDER         FAIR      39  20  46 CALM      29.90R
6HR MIN TEMP:  22; 6HR MAX TEMP:  39;

RIVERTON       FAIR      41  20  43 SW3       29.92R
6HR MIN TEMP:  25; 6HR MAX TEMP:  41;

CASPER         FAIR      42  22  44 SW20G26   29.88R
6HR MIN TEMP:  27; 6HR MAX TEMP:  42;

DOUGLAS        FAIR      47  22  37 W24G36    29.84F
6HR MIN TEMP:  22; 6HR MAX TEMP:  47;


$$
WYZ021-027>030-104>119-141900-
SOUTHERN WYOMING

CITY           SKY/WX    TMP DP  RH WIND       PRES   REMARKS
EVANSTON       CLOUDY    33  28  81 SW25      30.16R WCI  20
6HR MIN TEMP:  27; 6HR MAX TEMP:  32;

KEMMERER       CLOUDY    32  30  93 W23G30    30.11S FOG     WCI  19
FORT BRIDGER   CLOUDY    36  32  87 W20G28    30.16S WCI  25
ROCK SPRINGS   CLOUDY    33  26  75 W33G39    30.06F WCI  18
6HR MIN TEMP:  31; 6HR MAX TEMP:  33;

DIXON          CLOUDY    31  21  68 N7        30.12F WCI  24
RAWLINS        FAIR      32  24  72 W32G41    29.98F WCI  17
6HR MIN TEMP:  28; 6HR MAX TEMP:  33;

SARATOGA       MOCLDY    32  23  69 W20G26    30.02F WCI  20
LARAMIE        FAIR      34  21  59 W29G41    29.93F WCI  20
6HR MIN TEMP:  32; 6HR MAX TEMP:  36;

CHEYENNE       FAIR      43  21  41 W23G41    29.90S
6HR MIN TEMP:  36; 6HR MAX TEMP:  44;

TORRINGTON     FAIR      50  20  30 W25G39    29.83F
6HR MIN TEMP:  30; 6HR MAX TEMP:  50;

PINE BLUFFS    FAIR      45  21  39 W25G41    29.86F

$$




USA.gov is the U.S. government's official web portal to all federal, state and local government web resources and services.